EW3359 Weather Reports


Display with metric or nautical units.
time (UTC)temp
F
wind
direction
speed
MPH
gust
MPH
rain 1hr
in
rain 24hr
in
rain mn
in
humidity
%
barometer
mb
20260502190037 67 336 0.0 2.0 0.00 0.00 0.00 52 1013.6
20260502184545 69 132 0.0 2.0 0.00 0.00 0.00 47 1013.5
20260502183046 69 296 0.0 2.0 0.00 0.00 0.00 47 1013.4
20260502181537 70 264 0.0 3.0 0.00 0.00 0.00 47 1013.4
20260502163035 73 205 0.0 4.0 0.00 0.00 0.00 43 1013.0
20260502161525 74 182 1.0 6.0 0.00 0.00 0.00 41 1013.1
20260502151519 76 177 1.0 7.0 0.00 0.00 0.00 38 1013.2
20260502123012 79 213 1.0 9.0 0.00 0.00 0.00 31 1015.3
20260502121501 78 286 0.0 8.0 0.00 0.00 0.00 28 1015.5
20260502114608 77 173 1.0 6.0 0.00 0.00 0.00 30 1015.9
20260502113055 77 187 1.0 5.0 0.00 0.00 0.00 34 1016.2
20260502111554 76 274 0.0 6.0 0.00 0.00 0.00 33 1016.5
20260502110048 75 231 2.0 5.0 0.00 0.00 0.00 36 1016.8
20260502104550 74 186 0.0 6.0 0.00 0.00 0.00 36 1017.0
20260502103041 74 204 1.0 5.0 0.00 0.00 0.00 38 1017.4
20260502101607 71 196 0.0 3.0 0.00 0.00 0.00 40 1017.8
20260502091524 68 176 0.0 2.0 0.00 0.00 0.00 42 1019.0
20260502070012 59 153 0.0 3.0 0.00 0.00 0.00 59 1021.1
20260502064511 58 150 0.0 2.0 0.00 0.00 0.00 59 1021.1
20260502063007 57 130 0.0 4.0 0.00 0.00 0.00 60 1021.2
20260502061504 55 96 0.0 0.0 0.00 0.00 0.00 65 1021.2
20260502060005 54 22 0.0 1.0 0.00 0.00 0.00 69 1021.3
20260502054600 52 16 0.0 0.0 0.00 0.00 0.00 71 1021.5
20260502053055 52 59 0.0 1.0 0.00 0.00 0.00 68 1021.4
20260502051617 53 13 0.0 0.0 0.00 0.00 0.00 68 1021.3
20260502050049 53 22 0.0 2.0 0.00 0.00 0.00 66 1021.3
20260502044548 53 28 0.0 0.0 0.00 0.00 0.00 69 1021.6
20260502043048 52 28 0.0 0.0 0.00 0.00 0.00 70 1021.6
20260502041544 52 28 0.0 0.0 0.00 0.00 0.00 69 1021.5
20260502040052 53 28 0.0 2.0 0.00 0.00 0.00 66 1021.4
20260502034540 53 30 0.0 1.0 0.00 0.00 0.00 66 1021.4
20260502033042 54 32 0.0 1.0 0.00 0.00 0.00 63 1021.3
20260502031540 55 26 0.0 1.0 0.00 0.00 0.00 61 1021.3
20260502030039 53 5 0.0 0.0 0.00 0.00 0.00 66 1021.3
20260502024541 53 5 0.0 0.0 0.00 0.00 0.00 67 1021.3
20260502023044 53 5 0.0 0.0 0.00 0.00 0.00 66 1021.4
20260502021536 54 5 0.0 0.0 0.00 0.00 0.00 65 1021.5
20260502020039 54 5 0.0 0.0 0.00 0.00 0.00 63 1021.4
20260502014531 56 5 0.0 0.0 0.00 0.00 0.00 59 1021.5
20260502013050 56 5 0.0 0.0 0.00 0.00 0.00 61 1021.5
20260502011530 55 5 0.0 0.0 0.00 0.00 0.00 64 1021.4
20260502010026 56 5 0.0 0.0 0.00 0.00 0.00 60 1021.4
20260502004525 57 5 0.0 0.0 0.00 0.00 0.00 57 1021.4
20260502003026 57 9 0.0 0.0 0.00 0.00 0.00 59 1021.4
20260502001522 58 9 0.0 0.0 0.00 0.00 0.00 56 1021.3
20260502000021 58 10 0.0 0.0 0.00 0.00 0.00 56 1021.2
20260501234520 58 9 0.0 0.0 0.00 0.00 0.00 57 1021.2
20260501233022 58 10 0.0 0.0 0.00 0.00 0.00 61 1021.3
20260501231516 58 9 0.0 0.0 0.00 0.00 0.00 63 1021.1
20260501230016 58 9 0.0 0.0 0.00 0.00 0.00 63 1021.1
20260501224515 58 11 0.0 0.0 0.00 0.00 0.00 63 1021.1
20260501223012 59 11 0.0 0.0 0.00 0.00 0.00 62 1021.1
20260501221512 60 11 0.0 0.0 0.00 0.00 0.00 61 1021.0
20260501220007 60 11 0.0 0.0 0.00 0.00 0.00 63 1020.7
20260501214507 60 11 0.0 0.0 0.00 0.00 0.00 63 1020.6
20260501213006 60 11 0.0 1.0 0.00 0.00 0.00 62 1020.6
20260501211507 61 46 0.0 0.0 0.00 0.00 0.00 60 1020.4
20260501210009 62 46 0.0 0.0 0.00 0.00 0.00 57 1020.3
20260501204505 62 46 0.0 0.0 0.00 0.00 0.00 56 1020.1
20260501203007 64 49 0.0 0.0 0.00 0.00 0.00 54 1019.9
20260501201504 64 49 0.0 0.0 0.00 0.00 0.00 54 1019.8
20260501200004 64 49 0.0 0.0 0.00 0.00 0.00 53 1019.6
20260501194506 65 49 0.0 0.0 0.00 0.00 0.00 53 1019.4
20260501193004 65 49 0.0 0.0 0.00 0.00 0.00 53 1019.1
20260501191504 65 51 0.0 0.0 0.00 0.00 0.00 52 1018.7